Погода в Пуэрто-Эскондидо

Мексика     15°51′42″N   97°04′01″W
темп.,
°C
ветер,
м/с
пор.,
м/с
влажн.,
%
обл.,
%
осадки,
мм/ч
давл.,
гПа
погр.,
м
18 января, пн
пн1800:00+24ссв11861 0.1 1014108
03:00+24св11840 0.0 1013121
06:00+23ссв11810 0.0 101490
09:00+25ссв01700 0.0 1014140
12:00+26ю33756 0.0 1013403
15:00+26ю338011 0.0 1011433
18:00+25ююз228421 0.2 1011308
21:00+24ссз238718 0.0 1014262
19 января, вт
вт1900:00+24ссз45869 0.0 1015264
03:00+24сз33800 0.0 1013170
06:00+24с22710 0.0 1013105
09:00+25в446667 0.0 1014228
12:00+26юв557083 0.0 1014328
15:00+25юв6782100 0.0 1011396
18:00+25ююв228193 0.0 1012215
21:00+24вюв018271 0.0 1014139
20 января, ср
ср2000:00+24сз338540 0.0 1015232
03:00+24зсз33820 0.0 1014183
06:00+24сз22760 0.0 1014209
09:00+26с11650 0.0 1016172
12:00+27зюз336929 0.0 1014361
15:00+26зюз347382 0.0 1012310
18:00+25зсз348286 0.0 1012242
21:00+25зсз468483 0.0 1015261
21 января, чт
чт2100:00+25зсз468292 0.0 1015289
03:00+25ссз347396 0.0 1014189
06:00+24с226748 0.0 1014128
09:00+26всв22560 0.0 1015142
12:00+27ю33580 0.0 1014298
15:00+27ююв33660 0.0 1011471
18:00+25ююз11760 0.0 101186
21:00+25ссз22760 0.0 101488
22 января, пт
пт2200:00+25сз23740 0.0 1013163
03:00+25с11700 0.0 1012101
06:00+24всв22680 0.0 101390
09:00+26в33640 0.0 1014217
12:00+27ююв55680 0.0 1013323
15:00+26юз33700 0.0 1010379
18:00+26зсз11760 0.0 1010117
21:00+24св22800 0.0 101373